Location: Burgberg
(50.1428°N, 11.0671°E)
Time: 09:42:53
(UTC+00:00)

USA 116 - Pass Details

Date: 26 January 2020
Orbit: 405 x 834 km, 97.9° (Epoch: 18 November)

Event Time Altitude Azimuth Distance (km) Brightness Sun altitude
Rises 04:19:29 0° 153° (SSE) 3,002 7.8 -25.3°
Reaches altitude 10° 04:21:51 10° 150° (SSE) 2,028 6.9 -24.9°
Maximum altitude 04:26:09 57° 73° (ENE) 697 4.4 -24.2°
Enters shadow 04:28:01 28° 6° (N) 1,064 5.1 -23.9°
